Regional Weather Roundup
Issued by NWS

Home | Current Version | Previous Version | Graphics & Text | Print | Product List | Glossary On
Versions: 1 2 3 4 5 6 7 8 9 10 11 12 13 14 15 16 17 18 19 20 21 22 23 24 25 26 27 28 29 30 31 32 33 34 35 36 37 38 39 40 41 42 43 44 45 46 47 48 49 50
000
ASUS43 KIND 281859
RWRIN

WEATHER ROUNDUP FOR INDIANA
NATIONAL WEATHER SERVICE INDIANAPOLIS IN
300 PM EDT WED SEP 28 2016

NOTE: "FAIR" INDICATES FEW OR NO CLOUDS BELOW 12,000 FEET WITH NO
SIGNIFICANT WEATHER AND/OR OBSTRUCTIONS TO VISIBILITY.

* - STATION DOES NOT REPORT WEATHER SUCH AS PRECIPITATION OR FOG.

+ - STATION NOT QUALITY CONTROLLED BY THE NATIONAL WEATHER SERVICE.
    USE DATA WITH CAUTION...ESPECIALLY DEWPOINT AND RELATIVE
    HUMIDITY OBSERVATIONS.

INZ001>003-010>013-019-020-282000-
NORTHWEST INDIANA

CITY           SKY/WX    TMP DP  RH WIND       PRES   REMARKS
GARY /AIRPORT/ LGT RAIN  55  54  94 NW9G29    29.90S
KNOX *+        CLOUDY    59  28  31 NE3       29.87S
MONTICELLO +   CLOUDY    62  46  54 NW6       29.86S
RENSSELAER +   CLOUDY    55  50  82 NW9G17    29.89S

$$

LMZ046-743>745-282000-
SOUTHERN LAKE MICHIGAN

STATION/POSITION TIME  TEMP    WIND        PRES    WAVE
                       AIR SEA DIR/SP/G            HT
                 (UTC) (F)     (DEG/KT/KT) (MB)    (FT)
BURNS HARBOR     1840   59      50/ 14/ 18 1012.5R
MICHIGAN CITY    1830   57      20/ 15/ 20   N/A
5NW MICH CITY    1850   58 66   50/ 14/ 17   N/A     4

$$

INZ004-005-014>016-021>024-282000-
NORTH CENTRAL INDIANA

CITY           SKY/WX    TMP DP  RH WIND       PRES   REMARKS
ELKHART        CLOUDY   N/A N/A N/A NE6       29.88S
GOSHEN         CLOUDY    62  49  62 NE6       29.87R
SOUTH BEND     CLOUDY    57  48  72 NE3       29.90R
WARSAW +       CLOUDY    61  61 100 CALM      29.86S

$$

INZ006>009-017-018-025>027-282000-
NORTHEAST INDIANA

CITY           SKY/WX    TMP DP  RH WIND       PRES   REMARKS
ANGOLA *+        N/A     64  55  72 E5        29.86R
AUBURN +       CLOUDY    63  50  63 NE6       29.85S
FORT WAYNE     CLOUDY    61  52  72 NE3       29.85S
KENDALLVILLE + CLOUDY    63  49  60 E3        29.86R

$$

INZ028-029-035-036-043>045-051>053-282000-
WEST CENTRAL INDIANA

CITY           SKY/WX    TMP DP  RH WIND       PRES   REMARKS
CRAWFORDSVL +  CLOUDY    61  50  66 N8G20     29.86S
GREENCASTLE +  CLOUDY    59  55  88 NW10      29.86R
LAFAYETTE      CLOUDY    62  48  60 NW13      29.86S
TERRE HAUTE    MOSUNNY   66  48  52 NW13G21   29.87R

$$

INZ030>032-037>040-046>048-054>057-064-065-282000-
CENTRAL INDIANA

CITY           SKY/WX    TMP DP  RH WIND       PRES   REMARKS
COLUMBUS       CLOUDY    59  59 100 S6        29.83F
FRANKFORT +    CLOUDY    67  52  59 N10       29.86F
INDIANAPOLIS   CLOUDY    57  51  80 S6        29.82F THUNDER
-EAGLE CREEK   TSTM      60  54  80 W10       29.84R
KOKOMO *+      CLOUDY    61  54  77 N9        29.85S
MT COMFORT *+  CLOUDY    61  54  77 S5        29.83S
SHELBYVILLE    CLOUDY    63  53  70 VRB7      29.83R
ZIONSVILLE +   RAIN      56  52  87 N8        29.84R

$$

INZ033-034-041-042-049-050-058-059-282000-
EAST CENTRAL INDIANA

CITY           SKY/WX    TMP DP  RH WIND       PRES   REMARKS
MUNCIE         PTSUNNY   63  52  67 MISG      29.83F

$$

INZ060-061-067>069-081>083-085>088-282000-
SOUTHWEST INDIANA

CITY           SKY/WX    TMP DP  RH WIND       PRES   REMARKS
EVANSVILLE     PTSUNNY   70  56  61 VRB3      29.87S
HUNTINGBURG *+   N/A     64  57  77 W13       29.86S

$$

INZ062-063-066-070>080-084-089>092-282000-
SOUTH CENTRAL AND SOUTHEAST INDIANA

CITY           SKY/WX    TMP DP  RH WIND       PRES   REMARKS
BLOOMINGTON    TSTM      62  55  77 CALM      29.85R
MADISON *+     CLOUDY    59  55  88 S7        29.85F
SEYMOUR +      CLOUDY    64  57  77 S5        29.83S

$$




USA.gov is the U.S. government's official web portal to all federal, state and local government web resources and services.